Weather History for PASX - October, 2012

Change the Weather History Date:

Tuesday, October 23, 2012

  Actual Average Record
Temperature  
Mean Temperature 16 °F -  
Max Temperature 30 °F 38 °F 53 °F (1957)
Min Temperature 1 °F 22 °F -5 °F (1966)
Degree Days  
Heating Degree Days 50    
Moisture  
Dew Point 7 °F    
Average Humidity 74    
Maximum Humidity 92    
Minimum Humidity 47    
Precipitation  
Precipitation 0.00 in - - ()
Sea Level Pressure  
Sea Level Pressure 30.24 in    
Wind  
Wind Speed 4 mph (East)    
Max Wind Speed 7 mph    
Max Gust Speed -    
Visibility 10 miles    
Events      
Averages and records for this station are not official NWS values.
T = Trace of Precipitation, MM = Missing Value Source: NWS Daily Summary

Daily Weather History Graph

Daily Weather History Graph

Search for Another Location

Airport or City:

Trip Planner

Search our weather history database for the weather conditions in past years. The results will help you decide how hot, cold, wet, or windy it might be!

Date:

Astronomy

Oct. 23, 2012 Rise Set
Actual Time 9:06 AM AKDT 6:28 PM AKDT
Civil Twilight 8:22 AM AKDT 7:12 PM AKDT
Nautical Twilight 7:33 AM AKDT 8:02 PM AKDT
Astronomical Twilight 6:44 AM AKDT 8:50 PM AKDT
Moon 4:35 PM AKDT (10/23) 1:41 AM AKDT (10/23)
Length of Visible Light 10h 50m
Length of Day
9h 21m
Waxing Gibbous, 68% of the Moon is Illuminated
Oct 23
Waxing Gibbous
Oct 29
Full
Nov 6
Last Quarter
Nov 13
New
Nov 20
First Quarter

Hourly Weather History & Observations

Time (AKDT) Temp. Windchill Dew Point Humidity Pressure Visibility Wind Dir Wind Speed Gust Speed Precip Events Conditions
12:16 AM 8.6 °F 0.1 °F 5.0 °F 85% 30.25 in 10.0 mi East 4.6 mph - N/A   Clear
12:36 AM 8.6 °F -1.3 °F 5.0 °F 85% 30.25 in 10.0 mi East 5.8 mph - N/A   Clear
12:56 AM 10.4 °F 2.2 °F 6.8 °F 85% 30.25 in 10.0 mi East 4.6 mph - N/A   Clear
1:16 AM 8.6 °F 0.1 °F 5.0 °F 85% 30.25 in 10.0 mi East 4.6 mph - N/A   Clear
1:36 AM 8.6 °F 0.1 °F 5.0 °F 85% 30.25 in 10.0 mi East 4.6 mph - N/A   Clear
1:56 AM 6.8 °F -2.0 °F 3.2 °F 85% 30.24 in 10.0 mi East 4.6 mph - N/A   Clear
2:16 AM 6.8 °F -3.5 °F 3.2 °F 85% 30.24 in 10.0 mi East 5.8 mph - N/A   Clear
2:36 AM 6.8 °F -2.0 °F 3.2 °F 85% 30.24 in 10.0 mi East 4.6 mph - N/A   Clear
2:56 AM 6.8 °F -2.0 °F 3.2 °F 85% 30.24 in 10.0 mi East 4.6 mph - N/A   Clear
3:16 AM 6.8 °F -0.1 °F 3.2 °F 85% 30.24 in 10.0 mi East 3.5 mph - N/A   Clear
3:36 AM 6.8 °F -2.0 °F 5.0 °F 92% 30.24 in 10.0 mi East 4.6 mph - N/A   Clear
3:56 AM 5.0 °F -4.1 °F 1.4 °F 85% 30.24 in 10.0 mi East 4.6 mph - N/A   Clear
4:16 AM 5.0 °F -2.1 °F 1.4 °F 85% 30.24 in 10.0 mi East 3.5 mph - N/A   Clear
4:36 AM 6.8 °F -2.0 °F 1.4 °F 79% 30.24 in 10.0 mi East 4.6 mph - N/A   Clear
4:56 AM 6.8 °F -2.0 °F 3.2 °F 85% 30.24 in 10.0 mi East 4.6 mph - N/A   Clear
5:16 AM 6.8 °F -3.5 °F 1.4 °F 79% 30.24 in 10.0 mi East 5.8 mph - N/A   Clear
5:36 AM 6.8 °F -3.5 °F 1.4 °F 79% 30.24 in 10.0 mi East 5.8 mph - N/A   Clear
5:56 AM 6.8 °F -2.0 °F 1.4 °F 79% 30.24 in 10.0 mi ENE 4.6 mph - N/A   Clear
6:16 AM 6.8 °F -0.1 °F 1.4 °F 79% 30.24 in 10.0 mi ENE 3.5 mph - N/A   Clear
6:36 AM 5.0 °F -4.1 °F 1.4 °F 85% 30.24 in 10.0 mi East 4.6 mph - N/A   Clear
6:56 AM 3.2 °F -7.8 °F -2.2 °F 78% 30.24 in 10.0 mi East 5.8 mph - N/A   Clear
7:16 AM 3.2 °F -4.2 °F -0.4 °F 85% 30.24 in 10.0 mi East 3.5 mph - N/A   Clear
7:36 AM 3.2 °F -9.1 °F -0.4 °F 85% 30.24 in 10.0 mi East 6.9 mph - N/A   Clear
7:56 AM 5.0 °F -2.1 °F -0.4 °F 78% 30.25 in 10.0 mi ENE 3.5 mph - N/A   Clear
8:16 AM 1.4 °F -6.2 °F -4.0 °F 78% 30.25 in 10.0 mi East 3.5 mph - N/A   Clear
8:36 AM 3.2 °F -9.1 °F -0.4 °F 85% 30.24 in 10.0 mi East 6.9 mph - N/A   Clear
8:56 AM 3.2 °F -7.8 °F -0.4 °F 85% 30.25 in 10.0 mi East 5.8 mph - N/A   Clear
9:16 AM 3.2 °F -7.8 °F -0.4 °F 85% 30.24 in 10.0 mi East 5.8 mph - N/A   Clear
9:36 AM 3.2 °F -6.2 °F -0.4 °F 85% 30.24 in 10.0 mi East 4.6 mph - N/A   Clear
9:56 AM 3.2 °F -4.2 °F 1.4 °F 92% 30.25 in 10.0 mi ENE 3.5 mph - N/A   Clear
10:16 AM 5.0 °F -4.1 °F -0.4 °F 78% 30.25 in 10.0 mi East 4.6 mph - N/A   Clear
10:36 AM 6.8 °F -2.0 °F 3.2 °F 85% 30.24 in 10.0 mi East 4.6 mph - N/A   Clear
10:56 AM 8.6 °F 0.1 °F 5.0 °F 85% 30.24 in 10.0 mi East 4.6 mph - N/A   Clear
11:16 AM 10.4 °F 4.0 °F 6.8 °F 85% 30.24 in 10.0 mi East 3.5 mph - N/A   Clear
11:36 AM 12.2 °F 4.3 °F 8.6 °F 85% 30.24 in 10.0 mi East 4.6 mph - N/A   Clear
11:56 AM 14.0 °F 8.2 °F 10.4 °F 86% 30.23 in 10.0 mi East 3.5 mph - N/A   Clear
12:16 PM 17.6 °F - 12.2 °F 79% 30.24 in 10.0 mi Calm Calm - N/A   Clear
12:36 PM 19.4 °F - 12.2 °F 74% 30.24 in 10.0 mi Calm Calm - N/A   Clear
12:56 PM 21.2 °F 16.4 °F 14.0 °F 74% 30.23 in - ESE 3.5 mph - N/A   Clear
1:16 PM 24.8 °F 20.5 °F 15.8 °F 69% 30.24 in 10.0 mi East 3.5 mph - N/A   Clear
1:36 PM 26.6 °F 21.2 °F 17.6 °F 69% 30.24 in 10.0 mi ESE 4.6 mph - N/A   Clear
1:56 PM 26.6 °F 22.6 °F 17.6 °F 69% 30.24 in 10.0 mi East 3.5 mph - N/A   Clear
2:16 PM 28.4 °F 22.2 °F 15.8 °F 59% 30.24 in 10.0 mi ESE 5.8 mph - N/A   Clear
2:36 PM 28.4 °F 21.2 °F 15.8 °F 59% 30.24 in 10.0 mi ESE 6.9 mph - N/A   Clear
2:56 PM 28.4 °F 24.6 °F 14.0 °F 55% 30.24 in 10.0 mi East 3.5 mph - N/A   Clear
3:16 PM 30.2 °F 23.4 °F 12.2 °F 47% 30.23 in 10.0 mi East 6.9 mph - N/A   Clear
3:36 PM 30.2 °F 24.3 °F 14.0 °F 51% 30.23 in 10.0 mi ESE 5.8 mph - N/A   Clear
3:56 PM 30.2 °F 25.4 °F 14.0 °F 51% 30.24 in 10.0 mi NE 4.6 mph - N/A   Clear
4:16 PM 30.2 °F 25.4 °F 14.0 °F 51% 30.24 in 10.0 mi ENE 4.6 mph - N/A   Clear
4:36 PM 30.2 °F - 12.2 °F 47% 30.24 in 10.0 mi Calm Calm - N/A   Clear
4:56 PM 30.2 °F 25.4 °F 14.0 °F 51% 30.24 in 10.0 mi East 4.6 mph - N/A   Clear
5:16 PM 30.2 °F 26.7 °F 12.2 °F 47% 30.24 in 10.0 mi East 3.5 mph - N/A   Clear
5:36 PM 30.2 °F 25.4 °F 14.0 °F 51% 30.23 in 10.0 mi ESE 4.6 mph - N/A   Clear
5:56 PM 28.4 °F 22.2 °F 12.2 °F 51% 30.23 in 10.0 mi ESE 5.8 mph - N/A   Clear
6:16 PM 28.4 °F 21.2 °F 12.2 °F 51% 30.23 in 10.0 mi ESE 6.9 mph - N/A   Clear
6:36 PM 26.6 °F - 12.2 °F 55% 30.23 in 10.0 mi Calm Calm - N/A   Clear
6:56 PM 24.8 °F - 10.4 °F 54% 30.24 in - Calm Calm - N/A   Clear
7:16 PM 23.0 °F - 12.2 °F 63% 30.24 in 10.0 mi Calm Calm - N/A   Clear
7:36 PM 21.2 °F - 10.4 °F 63% 30.24 in - Calm Calm - N/A   Clear
7:56 PM 21.2 °F - 12.2 °F 68% 30.24 in - Calm Calm - N/A   Clear
8:16 PM 17.6 °F - 8.6 °F 68% 30.24 in - Calm Calm - N/A   Clear
8:36 PM 17.6 °F - 10.4 °F 73% 30.25 in - Calm Calm - N/A   Clear
8:56 PM 15.8 °F - 8.6 °F 73% 30.25 in 10.0 mi Calm Calm - N/A   Clear
9:16 PM 15.8 °F - 8.6 °F 73% 30.25 in 10.0 mi Calm Calm - N/A   Clear
9:36 PM 14.0 °F - 8.6 °F 79% 30.25 in 10.0 mi Calm Calm - N/A   Clear
9:56 PM 12.2 °F - 8.6 °F 85% 30.25 in 10.0 mi Calm Calm - N/A   Clear
10:16 PM 14.0 °F - 8.6 °F 79% 30.26 in 10.0 mi Calm Calm - N/A   Clear
10:36 PM 12.2 °F - 6.8 °F 79% 30.26 in 10.0 mi Calm Calm - N/A   Clear
10:56 PM 12.2 °F 6.1 °F 6.8 °F 79% 30.26 in 10.0 mi East 3.5 mph - N/A   Clear
11:16 PM 10.4 °F - 3.2 °F 73% 30.26 in 10.0 mi Calm Calm - N/A   Clear
11:36 PM 10.4 °F - 5.0 °F 79% 30.26 in 10.0 mi Calm Calm - N/A   Clear
11:56 PM 10.4 °F 0.8 °F 5.0 °F 79% 30.26 in 10.0 mi East 5.8 mph - N/A   Clear